Regional Weather Roundup
Issued by NWS

Home | Current Version | Previous Version | Graphics & Text | Print | Product List | Glossary On
Versions: 1 2 3 4 5 6 7 8 9 10 11 12 13 14 15 16 17 18 19 20 21 22 23 24 25 26 27 28 29 30 31 32 33 34 35 36 37 38 39 40 41 42 43 44 45 46 47 48 49 50
000
ASUS44 KMEG 241310
RWRTN
TENNESSEE HOURLY STATE WEATHER ROUNDUP
NATIONAL WEATHER SERVICE MEMPHIS TN
800 AM CDT FRI MAR 24 2017

TNZ002-004-019-021-049-052-054-088>092-241400-
WEST TENNESSEE

CITY           SKY/WX    TMP DP  RH WIND       PRES   REMARKS
MEMPHIS INTL   CLOUDY    66  59  78 S14       30.12R
NWS MEMPHIS      N/A     65 N/A N/A MISG        N/A
JACKSON        CLOUDY    64  57  78 S10G22    30.16R
DYERSBURG      MOSUNNY   64  57  77 S8        30.14R
SOMERVILLE     SUNNY     64  57  77 S13G20    30.12S
BOLIVAR        CLOUDY    64  57  77 SE14G22   30.15S
PARIS          SUNNY     61  54  77 S14       30.16S
HUNTINGDON     MOSUNNY   64  55  72 S14G21    30.16R
SAVANNAH       MOSUNNY   64  55  72 S14G20    30.20R
$$

TNZ008-025-027-028-033-062-065-066-241400-
NORTH MIDDLE TENNESSEE

CITY           SKY/WX    TMP DP  RH WIND       PRES   REMARKS
NASHVILLE      PTSUNNY   62  49  62 S17       30.26R
PORTLAND       CLOUDY    59  48  67 S20       30.24R
CLARKSVILLE    SUNNY     62  51  67 S9        30.19R
SMYRNA         CLOUDY    62  50  64 S15       30.28R
COOKEVILLE     CLOUDY    59  45  58 S12G18    30.31R
GALLATIN       CLOUDY    61  48  63 S10       30.29R
CROSSVILLE     CLOUDY    54  42  64 S9G24     30.35R
$$

TNZ061-075-076-078-094-096-097-241400-
SOUTH MIDDLE TENNESSEE

CITY           SKY/WX    TMP DP  RH WIND       PRES   REMARKS
FAYETTEVILLE   CLOUDY    61  50  67 S16       30.30R
TULLAHOMA      CLOUDY    57  46  67 S10       30.31S
WINCHESTER     MOSUNNY   59  48  67 SE14      30.31R
MCMINNVILLE    CLOUDY    61  46  59 S8        30.32R
COLUMBIA       SUNNY     63  55  77 S16       30.23S
SHELBYVILLE    CLOUDY    63  52  67 S12       30.30R
$$

TNZ017-018-042-046-047-241400-
NORTHEAST TENNESSEE

CITY           SKY/WX    TMP DP  RH WIND       PRES   REMARKS
TRI CITIES     MOSUNNY   54  35  48 CALM      30.38S
ELIZABETHTON   SUNNY     52  34  50 E6        30.40R
$$

TNZ012-013-036-069-073-074-241400-
CENTRAL EAST TENNESSEE

CITY           SKY/WX    TMP DP  RH WIND       PRES   REMARKS
KNOXVILLE      CLOUDY    55  40  56 CALM      30.37R
OAK RIDGE      CLOUDY    59  39  47 CALM      30.39R
DOWNTOWN KNOXV CLOUDY    54  41  62 CALM      30.38R
GATLINBURG     CLOUDY    46  39  76 CALM      30.37R
MORRISTOWN     CLOUDY    52  36  54 N5        30.37R
JACKSBORO      CLOUDY    59  41  51 S8        30.38S
$$

TNZ083-085-099-241400-
SOUTHEAST TENNESSEE

CITY           SKY/WX    TMP DP  RH WIND       PRES   REMARKS
CHATTANOOGA    PTSUNNY   58  41  53 VRB5      30.39R
$$

SKY/WX REPORTED AS FAIR MEANS FEW OR NO CLOUDS BELOW
12 THOUSAND FEET.





USA.gov is the U.S. government's official web portal to all federal, state and local government web resources and services.